Champaign, IL

9:07 PM CDT on July 23, 2019 (GMT -0500)
Univ Of Illinois-Willard

Weather History for KCMI - May, 2019

Change the Weather History Date:

Sunday, May 26, 2019

  Actual Average Record
Temperature  
Mean Temperature 72 °F 66 °F  
Max Temperature 79 °F 79 °F 95 °F (2012)
Min Temperature 64 °F 55 °F 41 °F (2002)
Degree Days  
Heating Degree Days 0 2  
Month to date heating degree days 136 131  
Since 1 July heating degree days 5899 5795  
Cooling Degree Days 7 4  
Month to date cooling degree days 72 60  
Year to date cooling degree days 75 71  
Growing Degree Days 21 (Base 50)    
Moisture  
Dew Point 64 °F    
Average Humidity 78    
Maximum Humidity 93    
Minimum Humidity 62    
Precipitation  
Precipitation 0.76 in 0.12 in 0.76 in (2019)
Month to date precipitation 4.65 3.85  
Year to date precipitation 16.79 14.46  
Sea Level Pressure  
Sea Level Pressure 30.04 in    
Wind  
Wind Speed 5 mph (WNW)    
Max Wind Speed 47 mph    
Max Gust Speed 62 mph    
Visibility 8 miles    
Events Fog , Rain , Thunderstorm    
T = Trace of Precipitation, MM = Missing Value Source: NWS Daily Summary

Daily Weather History Graph

Daily Weather History Graph

Search for Another Location

Airport or City:

Astronomy

May. 26, 2019 Rise Set
Actual Time 5:29 AM CDT 8:11 PM CDT
Civil Twilight 4:57 AM CDT 8:43 PM CDT
Nautical Twilight 4:18 AM CDT 9:22 PM CDT
Astronomical Twilight 3:33 AM CDT 10:07 PM CDT
Moon 1:43 AM CDT (5/26) 12:26 PM CDT (5/26)
Length of Visible Light 15h 45m
Length of Day
14h 41m
Waning Gibbous, 50% of the Moon is Illuminated
May 26
Waning Gibbous
Jun 3
New
Jun 10
First Quarter
Jun 17
Full
Jun 25
Last Quarter

Hourly Weather History & Observations

Time (CDT) Temp. Dew Point Humidity Pressure Visibility Wind Dir Wind Speed Gust Speed Precip Events Conditions
12:53 AM 75.0 °F 66.9 °F 76% 29.97 in 10.0 mi South 9.2 mph - N/A   Scattered Clouds
1:19 AM 75.0 °F 66.9 °F 76% 29.98 in 10.0 mi South 11.5 mph - 0.00 in Rain , Thunderstorm Light Rain
1:25 AM 72.0 °F 66.9 °F 84% 30.05 in 2.0 mi West 47.2 mph 62.1 mph 0.10 in Rain , Thunderstorm Thunderstorms and Rain
1:27 AM 69.1 °F 64.9 °F 87% 30.05 in 1.0 mi WNW 40.3 mph 62.1 mph 0.20 in Rain , Thunderstorm Heavy Thunderstorms and Rain
1:32 AM 64.9 °F 63.0 °F 93% 30.03 in 0.5 mi NW 41.4 mph 62.1 mph 0.35 in Fog , Rain , Thunderstorm Heavy Thunderstorms and Rain
1:39 AM 64.0 °F 63.0 °F 96% 30.04 in 0.5 mi NW 31.1 mph 57.5 mph 0.61 in Fog , Rain , Thunderstorm Heavy Thunderstorms and Rain
1:53 AM 64.9 °F 64.0 °F 97% 30.01 in 3.0 mi NW 20.7 mph 31.1 mph 0.65 in Rain , Thunderstorm Light Thunderstorms and Rain
2:01 AM 64.9 °F 64.0 °F 97% 30.05 in 10.0 mi NW 15.0 mph 27.6 mph 0.00 in Rain , Thunderstorm Light Thunderstorms and Rain
2:09 AM 66.0 °F 64.0 °F 93% 30.05 in 8.0 mi NW 12.7 mph - 0.02 in Rain , Thunderstorm Light Rain
2:28 AM 64.9 °F 63.0 °F 93% 30.02 in 9.0 mi North 12.7 mph - 0.04 in Rain Light Rain
2:53 AM 64.9 °F 63.0 °F 93% 30.01 in 10.0 mi Calm Calm - 0.04 in   Scattered Clouds
3:53 AM 64.9 °F 63.0 °F 93% 30.02 in 10.0 mi WSW 4.6 mph - 0.00 in   Overcast
4:53 AM 64.9 °F 63.0 °F 93% 30.03 in 10.0 mi WSW 4.6 mph - 0.00 in Rain Light Rain
5:13 AM 64.9 °F 63.0 °F 93% 30.04 in 10.0 mi SSW 5.8 mph - 0.00 in Thunderstorm Overcast
5:34 AM 64.9 °F 63.0 °F 93% 30.05 in 7.0 mi West 3.5 mph - 0.02 in Rain Light Rain
5:53 AM 64.9 °F 63.0 °F 93% 30.05 in 9.0 mi West 3.5 mph - 0.02 in Rain Light Rain
6:53 AM 66.0 °F 64.0 °F 93% 30.05 in 10.0 mi WSW 4.6 mph - 0.02 in   Mostly Cloudy
7:53 AM 68.0 °F 64.0 °F 87% 30.05 in 10.0 mi West 5.8 mph - 0.00 in   Mostly Cloudy
8:53 AM 69.1 °F 64.0 °F 84% 30.06 in 10.0 mi WNW 5.8 mph - N/A   Mostly Cloudy
9:53 AM 70.0 °F 63.0 °F 78% 30.05 in 10.0 mi NNW 3.5 mph - N/A   Mostly Cloudy
10:53 AM 73.0 °F 64.9 °F 76% 30.05 in 10.0 mi Calm Calm - N/A   Mostly Cloudy
11:53 AM 73.0 °F 64.0 °F 73% 30.07 in 10.0 mi WNW 6.9 mph - N/A   Overcast
12:53 PM 71.1 °F 64.0 °F 78% 30.06 in 9.0 mi Calm Calm - 0.03 in Rain Light Rain
1:53 PM 75.0 °F 62.1 °F 64% 30.05 in 10.0 mi ESE 3.5 mph - 0.00 in   Clear
2:53 PM 78.1 °F 64.0 °F 62% 30.05 in 10.0 mi NW 6.9 mph - N/A   Mostly Cloudy
3:53 PM 77.0 °F 64.0 °F 64% 30.05 in 10.0 mi NW 8.1 mph - N/A   Mostly Cloudy
4:53 PM 75.9 °F 64.0 °F 67% 30.04 in 10.0 mi NNW 6.9 mph - N/A   Mostly Cloudy
5:53 PM 73.9 °F 64.0 °F 71% 30.04 in 10.0 mi NNW 9.2 mph - N/A   Mostly Cloudy
6:53 PM 75.0 °F 64.9 °F 71% 30.04 in 10.0 mi North 5.8 mph - N/A   Partly Cloudy
7:53 PM 72.0 °F 63.0 °F 73% 30.04 in 10.0 mi NE 3.5 mph - N/A   Clear
8:53 PM 69.1 °F 63.0 °F 81% 30.05 in 10.0 mi Calm Calm - N/A   Clear
9:53 PM 66.0 °F 64.0 °F 93% 30.05 in 10.0 mi ESE 4.6 mph - N/A   Clear
10:53 PM 66.0 °F 64.0 °F 93% 30.05 in 10.0 mi SE 4.6 mph - N/A   Clear
11:53 PM 66.0 °F 63.0 °F 90% 30.05 in 10.0 mi Calm Calm - N/A   Clear